Tracking 20472 objects as of 28-Feb-2020
HD Live streaming from Space Station
objects crossing your sky now

D STAR ONE (EXOCONNECT)

Track D STAR ONE (EXOCONNECT) now!
10-day predictions


NORAD ID: 44410
Int'l Code: 2019-038AA
Perigee: 520.0 km
Apogee: 551.9 km
Inclination: 97.5 °
Period: 95.2 minutes
Semi major axis: 6906 km
RCS: Unknown
Launch date: July 5, 2019
Source: Germany (GER)
Launch site: VOSTOCHNY COSMODROME (VOSTO)
aabbcc
Your satellite tracking list
Your tracking list is empty




NASA's NSSDC Master Catalog

Two Line Element Set (TLE):
1 44410U 19038AA  20058.86237486 +.00000911 +00000-0 +55897-4 0  9992
2 44410 097.5238 021.7519 0023113 148.5768 211.6849 15.12431904035877
Source of the keplerian elements: AFSPC